| time (UTC) | temp F | wind direction | speed MPH | gust MPH | rain 1hr in | rain 24hr in | rain mn in | humidity % | barometer mb |
| 20260507114140 | 52 | 43 | 1.0 | 7.0 | 0.00 | 0.00 | 0.00 | 80 | 1015.2 |
| 20260507113640 | 52 | 34 | 0.0 | 5.0 | 0.00 | 0.00 | 0.00 | 80 | 1015.3 |
| 20260507113140 | 52 | 46 | 0.0 | 5.0 | 0.00 | 0.00 | 0.00 | 80 | 1015.3 |
| 20260507111640 | 52 | 74 | 0.0 | 0.0 | 0.00 | 0.00 | 0.00 | 80 | 1015.2 |
| 20260507110640 | 52 | 80 | 0.0 | 0.0 | 0.00 | 0.00 | 0.00 | 80 | 1015.3 |
| 20260507110140 | 52 | 80 | 0.0 | 0.0 | 0.00 | 0.00 | 0.00 | 80 | 1015.4 |
| 20260507104640 | 52 | 80 | 0.0 | 0.0 | 0.00 | 0.00 | 0.00 | 80 | 1015.5 |
| 20260507104140 | 52 | 80 | 0.0 | 0.0 | 0.00 | 0.00 | 0.00 | 80 | 1015.4 |
| 20260507103140 | 52 | 80 | 0.0 | 0.0 | 0.00 | 0.00 | 0.00 | 80 | 1015.3 |
| 20260507102640 | 52 | 80 | 0.0 | 0.0 | 0.00 | 0.00 | 0.00 | 80 | 1015.5 |
| 20260507102140 | 53 | 80 | 0.0 | 0.0 | 0.00 | 0.00 | 0.00 | 79 | 1015.4 |
| 20260507101640 | 53 | 80 | 0.0 | 0.0 | 0.00 | 0.00 | 0.00 | 79 | 1015.4 |
| 20260507101140 | 53 | 80 | 0.0 | 0.0 | 0.00 | 0.00 | 0.00 | 79 | 1015.5 |
| 20260507100640 | 52 | 69 | 0.0 | 0.0 | 0.00 | 0.00 | 0.00 | 73 | 1015.3 |
| 20260507100140 | 53 | 93 | 0.0 | 0.0 | 0.00 | 0.00 | 0.00 | 74 | 1015.2 |
| 20260507095640 | 53 | 104 | 0.0 | 0.0 | 0.00 | 0.00 | 0.00 | 74 | 1015.2 |
| 20260507095140 | 53 | 92 | 0.0 | 1.0 | 0.00 | 0.00 | 0.00 | 74 | 1015.0 |
| 20260507094640 | 53 | 64 | 0.0 | 1.0 | 0.00 | 0.00 | 0.00 | 74 | 1014.8 |
| 20260507094140 | 53 | 60 | 0.0 | 0.0 | 0.00 | 0.00 | 0.00 | 74 | 1014.7 |
| 20260507093141 | 53 | 72 | 0.0 | 0.0 | 0.00 | 0.00 | 0.00 | 74 | 1014.8 |
| 20260507092640 | 53 | 76 | 0.0 | 1.0 | 0.00 | 0.00 | 0.00 | 74 | 1014.7 |
| 20260507092140 | 53 | 73 | 0.0 | 1.0 | 0.00 | 0.00 | 0.00 | 74 | 1014.8 |
| 20260507091640 | 54 | 123 | 0.0 | 1.0 | 0.00 | 0.00 | 0.00 | 74 | 1014.8 |
| 20260507091140 | 53 | 88 | 0.0 | 1.0 | 0.00 | 0.00 | 0.00 | 74 | 1014.9 |
| 20260507090640 | 53 | 89 | 0.0 | 0.0 | 0.00 | 0.00 | 0.00 | 74 | 1014.8 |
| 20260507085640 | 54 | 70 | 0.0 | 2.0 | 0.00 | 0.00 | 0.00 | 74 | 1014.6 |
| 20260507085140 | 54 | 69 | 1.0 | 2.0 | 0.00 | 0.00 | 0.00 | 75 | 1014.5 |
| 20260507084640 | 54 | 66 | 0.0 | 1.0 | 0.00 | 0.00 | 0.00 | 74 | 1014.3 |
| 20260507084140 | 54 | 78 | 0.0 | 0.0 | 0.00 | 0.00 | 0.00 | 74 | 1014.2 |
| 20260507083640 | 54 | 86 | 0.0 | 0.0 | 0.00 | 0.00 | 0.00 | 74 | 1014.3 |
| 20260507083140 | 54 | 79 | 0.0 | 0.0 | 0.00 | 0.00 | 0.00 | 74 | 1014.2 |
| 20260507082640 | 54 | 80 | 0.0 | 0.0 | 0.00 | 0.00 | 0.00 | 74 | 1014.0 |
| 20260507082140 | 54 | 70 | 0.0 | 0.0 | 0.00 | 0.00 | 0.00 | 74 | 1014.1 |
| 20260507081140 | 55 | 75 | 0.0 | 2.0 | 0.00 | 0.00 | 0.00 | 74 | 1013.7 |
| 20260507080640 | 55 | 62 | 0.0 | 2.0 | 0.00 | 0.00 | 0.00 | 74 | 1013.8 |
| 20260507080140 | 55 | 70 | 0.0 | 1.0 | 0.00 | 0.00 | 0.00 | 74 | 1013.7 |
| 20260507075640 | 55 | 80 | 0.0 | 1.0 | 0.00 | 0.00 | 0.00 | 74 | 1013.8 |
| 20260507074640 | 55 | 68 | 0.0 | 2.0 | 0.00 | 0.00 | 0.00 | 73 | 1013.7 |
| 20260507073640 | 56 | 77 | 0.0 | 3.0 | 0.00 | 0.00 | 0.00 | 73 | 1013.8 |
| 20260507073140 | 56 | 74 | 0.0 | 3.0 | 0.00 | 0.00 | 0.00 | 72 | 1013.5 |
| 20260507072640 | 56 | 99 | 0.0 | 1.0 | 0.00 | 0.00 | 0.00 | 72 | 1013.4 |
| 20260507072140 | 56 | 80 | 0.0 | 2.0 | 0.00 | 0.00 | 0.00 | 72 | 1013.2 |
| 20260507071640 | 56 | 74 | 0.0 | 2.0 | 0.00 | 0.00 | 0.00 | 72 | 1013.1 |
| 20260507071140 | 56 | 71 | 0.0 | 3.0 | 0.00 | 0.00 | 0.00 | 71 | 1013.1 |
| 20260507070640 | 57 | 74 | 1.0 | 3.0 | 0.00 | 0.00 | 0.00 | 71 | 1013.1 |
| 20260507070140 | 57 | 71 | 0.0 | 3.0 | 0.00 | 0.00 | 0.00 | 71 | 1013.0 |
| 20260507065640 | 57 | 79 | 0.0 | 3.0 | 0.00 | 0.00 | 0.00 | 71 | 1013.0 |
| 20260507065140 | 57 | 77 | 1.0 | 3.0 | 0.00 | 0.00 | 0.00 | 71 | 1013.0 |
| 20260507064640 | 57 | 80 | 0.0 | 3.0 | 0.00 | 0.00 | 0.00 | 71 | 1012.8 |
| 20260507064140 | 57 | 72 | 0.0 | 2.0 | 0.00 | 0.00 | 0.00 | 71 | 1012.6 |
| 20260507063639 | 57 | 76 | 1.0 | 1.0 | 0.00 | 0.00 | 0.00 | 70 | 1012.6 |
| 20260507063140 | 58 | 72 | 0.0 | 1.0 | 0.00 | 0.00 | 0.00 | 70 | 1012.8 |
| 20260507062640 | 58 | 76 | 0.0 | 1.0 | 0.00 | 0.00 | 0.00 | 70 | 1012.8 |
| 20260507062140 | 58 | 63 | 1.0 | 1.0 | 0.00 | 0.00 | 0.00 | 70 | 1012.8 |
| 20260507061640 | 58 | 78 | 0.0 | 1.0 | 0.00 | 0.00 | 0.00 | 69 | 1012.7 |
| 20260507061140 | 58 | 76 | 0.0 | 0.0 | 0.00 | 0.00 | 0.00 | 69 | 1012.5 |
| 20260507060640 | 58 | 83 | 0.0 | 0.0 | 0.00 | 0.00 | 0.00 | 69 | 1012.2 |
| 20260507060140 | 58 | 84 | 0.0 | 1.0 | 0.00 | 0.00 | 0.00 | 69 | 1012.2 |
| 20260507055140 | 58 | 79 | 0.0 | 0.0 | 0.00 | 0.00 | 0.00 | 69 | 1012.3 |
| 20260507054640 | 58 | 86 | 0.0 | 2.0 | 0.00 | 0.00 | 0.00 | 69 | 1012.2 |
| 20260507054139 | 59 | 89 | 0.0 | 2.0 | 0.00 | 0.00 | 0.00 | 69 | 1012.2 |
| 20260507053640 | 59 | 84 | 0.0 | 1.0 | 0.00 | 0.00 | 0.00 | 69 | 1012.0 |
| 20260507053139 | 59 | 103 | 0.0 | 1.0 | 0.00 | 0.00 | 0.00 | 69 | 1011.9 |
| 20260507052640 | 59 | 132 | 0.0 | 1.0 | 0.00 | 0.00 | 0.00 | 69 | 1011.9 |
| 20260507052139 | 59 | 116 | 0.0 | 1.0 | 0.00 | 0.00 | 0.00 | 68 | 1011.9 |
| 20260507051640 | 59 | 111 | 0.0 | 1.0 | 0.00 | 0.00 | 0.00 | 68 | 1011.9 |
| 20260507051140 | 60 | 124 | 0.0 | 1.0 | 0.00 | 0.00 | 0.00 | 67 | 1012.0 |
| 20260507050640 | 60 | 91 | 0.0 | 0.0 | 0.00 | 0.00 | 0.00 | 67 | 1011.8 |
| 20260507050140 | 60 | 94 | 0.0 | 0.0 | 0.00 | 0.00 | 0.00 | 67 | 1011.8 |
| 20260507045640 | 60 | 81 | 0.0 | 0.0 | 0.00 | 0.00 | 0.00 | 67 | 1011.7 |
| 20260507044640 | 61 | 103 | 0.0 | 2.0 | 0.00 | 0.00 | 0.00 | 66 | 1011.7 |
| 20260507044142 | 61 | 86 | 0.0 | 3.0 | 0.00 | 0.00 | 0.00 | 66 | 1011.7 |
| 20260507043640 | 61 | 75 | 1.0 | 3.0 | 0.00 | 0.00 | 0.00 | 66 | 1011.6 |
| 20260507042639 | 61 | 73 | 0.0 | 1.0 | 0.00 | 0.00 | 0.00 | 65 | 1011.5 |
| 20260507042140 | 61 | 74 | 0.0 | 1.0 | 0.00 | 0.00 | 0.00 | 65 | 1011.4 |
| 20260507041639 | 62 | 83 | 0.0 | 1.0 | 0.00 | 0.00 | 0.00 | 64 | 1011.3 |
| 20260507041140 | 62 | 84 | 0.0 | 2.0 | 0.00 | 0.00 | 0.00 | 64 | 1011.3 |
| 20260507040639 | 62 | 77 | 0.0 | 3.0 | 0.00 | 0.00 | 0.00 | 63 | 1011.3 |
| 20260507040139 | 62 | 80 | 0.0 | 3.0 | 0.00 | 0.00 | 0.00 | 62 | 1011.2 |
| 20260507035139 | 63 | 98 | 0.0 | 3.0 | 0.00 | 0.00 | 0.00 | 60 | 1010.8 |
| 20260507034639 | 63 | 91 | 0.0 | 3.0 | 0.00 | 0.00 | 0.00 | 59 | 1010.7 |
| 20260507034139 | 63 | 109 | 0.0 | 2.0 | 0.00 | 0.00 | 0.00 | 58 | 1010.6 |
| 20260507033639 | 63 | 81 | 0.0 | 2.0 | 0.00 | 0.00 | 0.00 | 58 | 1010.5 |
| 20260507033139 | 63 | 81 | 1.0 | 2.0 | 0.00 | 0.00 | 0.00 | 58 | 1010.3 |
| 20260507032140 | 64 | 76 | 0.0 | 0.0 | 0.00 | 0.00 | 0.00 | 58 | 1010.0 |
| 20260507031639 | 64 | 67 | 0.0 | 1.0 | 0.00 | 0.00 | 0.00 | 57 | 1009.9 |
| 20260507031140 | 64 | 76 | 0.0 | 6.0 | 0.00 | 0.00 | 0.00 | 56 | 1009.9 |
| 20260507030640 | 64 | 71 | 0.0 | 6.0 | 0.00 | 0.00 | 0.00 | 56 | 1009.9 |
| 20260507025639 | 65 | 76 | 0.0 | 2.0 | 0.00 | 0.00 | 0.00 | 56 | 1009.8 |
| 20260507024639 | 65 | 75 | 0.0 | 7.0 | 0.00 | 0.00 | 0.00 | 56 | 1009.7 |
| 20260507024139 | 65 | 80 | 1.0 | 7.0 | 0.00 | 0.00 | 0.00 | 56 | 1009.5 |
| 20260507023639 | 65 | 77 | 0.0 | 2.0 | 0.00 | 0.00 | 0.00 | 56 | 1009.3 |
| 20260507023139 | 66 | 81 | 0.0 | 3.0 | 0.00 | 0.00 | 0.00 | 56 | 1009.1 |
| 20260507022639 | 66 | 95 | 0.0 | 3.0 | 0.00 | 0.00 | 0.00 | 55 | 1009.1 |
| 20260507022139 | 66 | 76 | 0.0 | 2.0 | 0.00 | 0.00 | 0.00 | 55 | 1009.1 |
| 20260507021140 | 67 | 89 | 1.0 | 3.0 | 0.00 | 0.00 | 0.00 | 54 | 1008.8 |
| 20260507020640 | 67 | 88 | 1.0 | 3.0 | 0.00 | 0.00 | 0.00 | 54 | 1008.8 |
| 20260507015139 | 68 | 83 | 0.0 | 3.0 | 0.00 | 0.00 | 0.00 | 54 | 1008.6 |
| 20260507014639 | 69 | 82 | 1.0 | 3.0 | 0.00 | 0.00 | 0.00 | 54 | 1008.5 |
| 20260507014139 | 69 | 81 | 0.0 | 2.0 | 0.00 | 0.00 | 0.00 | 55 | 1008.6 |
| 20260507013639 | 70 | 78 | 0.0 | 2.0 | 0.00 | 0.00 | 0.00 | 55 | 1008.5 |
| 20260507013139 | 70 | 77 | 0.0 | 2.0 | 0.00 | 0.00 | 0.00 | 54 | 1008.4 |
| 20260507012639 | 70 | 106 | 0.0 | 0.0 | 0.00 | 0.00 | 0.00 | 54 | 1008.4 |
| 20260507012140 | 71 | 103 | 0.0 | 0.0 | 0.00 | 0.00 | 0.00 | 54 | 1008.4 |
| 20260507011639 | 71 | 90 | 0.0 | 0.0 | 0.00 | 0.00 | 0.00 | 53 | 1008.4 |
| 20260507011139 | 72 | 84 | 0.0 | 0.0 | 0.00 | 0.00 | 0.00 | 52 | 1008.1 |
| 20260507010639 | 72 | 88 | 0.0 | 0.0 | 0.00 | 0.00 | 0.00 | 52 | 1008.0 |
| 20260507010139 | 72 | 122 | 0.0 | 2.0 | 0.00 | 0.00 | 0.00 | 51 | 1007.9 |
| 20260507005639 | 73 | 86 | 0.0 | 2.0 | 0.00 | 0.00 | 0.00 | 49 | 1007.9 |
| 20260507004639 | 73 | 82 | 0.0 | 0.0 | 0.00 | 0.00 | 0.00 | 47 | 1007.8 |
| 20260507003639 | 73 | 86 | 0.0 | 1.0 | 0.00 | 0.00 | 0.00 | 46 | 1007.7 |
| 20260507001639 | 74 | 69 | 0.0 | 1.0 | 0.00 | 0.00 | 0.00 | 42 | 1007.7 |
| 20260507001139 | 74 | 75 | 0.0 | 1.0 | 0.00 | 0.00 | 0.00 | 41 | 1007.6 |
| 20260507000639 | 74 | 43 | 0.0 | 1.0 | 0.00 | 0.00 | 0.00 | 41 | 1007.6 |
| 20260507000139 | 75 | 43 | 0.0 | 1.0 | 0.00 | 0.00 | 0.00 | 40 | 1007.6 |
| 20260506235639 | 75 | 44 | 0.0 | 1.0 | 0.00 | 0.00 | 0.00 | 40 | 1007.6 |
| 20260506234639 | 75 | 62 | 0.0 | 1.0 | 0.00 | 0.00 | 0.00 | 40 | 1007.5 |
| 20260506234139 | 75 | 54 | 0.0 | 1.0 | 0.00 | 0.00 | 0.00 | 40 | 1007.5 |
| 20260506233639 | 75 | 26 | 0.0 | 1.0 | 0.00 | 0.00 | 0.00 | 40 | 1007.5 |
| 20260506233139 | 75 | 76 | 0.0 | 1.0 | 0.00 | 0.00 | 0.00 | 40 | 1007.5 |
| 20260506232139 | 76 | 60 | 0.0 | 1.0 | 0.00 | 0.00 | 0.00 | 41 | 1007.4 |
| 20260506231639 | 76 | 83 | 0.0 | 1.0 | 0.00 | 0.00 | 0.00 | 40 | 1007.2 |
| 20260506231139 | 76 | 87 | 0.0 | 2.0 | 0.00 | 0.00 | 0.00 | 39 | 1007.2 |
| 20260506230639 | 76 | 85 | 0.0 | 2.0 | 0.00 | 0.00 | 0.00 | 39 | 1007.2 |
| 20260506230139 | 77 | 70 | 0.0 | 0.0 | 0.00 | 0.00 | 0.00 | 39 | 1007.1 |
| 20260506225639 | 76 | 103 | 0.0 | 0.0 | 0.00 | 0.00 | 0.00 | 40 | 1007.1 |
| 20260506225139 | 76 | 83 | 0.0 | 0.0 | 0.00 | 0.00 | 0.00 | 40 | 1007.1 |
| 20260506224639 | 76 | 69 | 0.0 | 0.0 | 0.00 | 0.00 | 0.00 | 40 | 1007.0 |
| 20260506224140 | 76 | 68 | 0.0 | 0.0 | 0.00 | 0.00 | 0.00 | 39 | 1007.2 |
| 20260506223639 | 76 | 108 | 0.0 | 0.0 | 0.00 | 0.00 | 0.00 | 41 | 1007.2 |
| 20260506223139 | 76 | 58 | 0.0 | 0.0 | 0.00 | 0.00 | 0.00 | 39 | 1007.1 |
| 20260506222639 | 76 | 64 | 0.0 | 0.0 | 0.00 | 0.00 | 0.00 | 39 | 1007.3 |
| 20260506222139 | 76 | 40 | 0.0 | 0.0 | 0.00 | 0.00 | 0.00 | 39 | 1007.3 |
| 20260506221639 | 76 | 80 | 0.0 | 0.0 | 0.00 | 0.00 | 0.00 | 40 | 1007.3 |
| 20260506221139 | 77 | 74 | 0.0 | 0.0 | 0.00 | 0.00 | 0.00 | 40 | 1007.4 |
| 20260506220639 | 76 | 256 | 0.0 | 0.0 | 0.00 | 0.00 | 0.00 | 40 | 1007.4 |
| 20260506215639 | 77 | 67 | 0.0 | 0.0 | 0.00 | 0.00 | 0.00 | 40 | 1007.4 |
| 20260506215139 | 77 | 62 | 0.0 | 0.0 | 0.00 | 0.00 | 0.00 | 40 | 1007.4 |
| 20260506214639 | 76 | 165 | 0.0 | 0.0 | 0.00 | 0.00 | 0.00 | 41 | 1007.3 |
| 20260506214139 | 75 | 101 | 0.0 | 0.0 | 0.00 | 0.00 | 0.00 | 43 | 1007.4 |
| 20260506213639 | 75 | 74 | 0.0 | 0.0 | 0.00 | 0.00 | 0.00 | 43 | 1007.4 |
| 20260506213139 | 74 | 41 | 0.0 | 0.0 | 0.00 | 0.00 | 0.00 | 44 | 1007.5 |
| 20260506212639 | 73 | 77 | 0.0 | 0.0 | 0.00 | 0.00 | 0.00 | 45 | 1007.6 |
| 20260506210139 | 72 | 19 | 0.0 | 1.0 | 0.00 | 0.00 | 0.00 | 47 | 1007.7 |
| 20260506205139 | 71 | 17 | 0.0 | 1.0 | 0.00 | 0.00 | 0.00 | 49 | 1007.7 |
| 20260506204639 | 71 | 38 | 0.0 | 0.0 | 0.00 | 0.00 | 0.00 | 48 | 1007.7 |
| 20260506204139 | 71 | 40 | 0.0 | 0.0 | 0.00 | 0.00 | 0.00 | 47 | 1007.9 |
| 20260506203639 | 71 | 34 | 0.0 | 0.0 | 0.00 | 0.00 | 0.00 | 48 | 1008.0 |
| 20260506203139 | 71 | 64 | 0.0 | 0.0 | 0.00 | 0.00 | 0.00 | 47 | 1008.1 |
| 20260506202639 | 71 | 80 | 0.0 | 0.0 | 0.00 | 0.00 | 0.00 | 48 | 1008.1 |
| 20260506202139 | 71 | 30 | 0.0 | 0.0 | 0.00 | 0.00 | 0.00 | 47 | 1008.1 |
| 20260506201139 | 72 | 357 | 0.0 | 0.0 | 0.00 | 0.00 | 0.00 | 46 | 1008.2 |
| 20260506200138 | 71 | 35 | 0.0 | 0.0 | 0.00 | 0.00 | 0.00 | 46 | 1008.3 |
| 20260506195638 | 72 | 338 | 0.0 | 0.0 | 0.00 | 0.00 | 0.00 | 47 | 1008.4 |
| 20260506195139 | 71 | 83 | 0.0 | 0.0 | 0.00 | 0.00 | 0.00 | 47 | 1008.4 |
| 20260506193638 | 71 | 78 | 0.0 | 1.0 | 0.00 | 0.00 | 0.00 | 48 | 1008.6 |
| 20260506193139 | 70 | 98 | 0.0 | 1.0 | 0.00 | 0.00 | 0.00 | 50 | 1008.6 |
| 20260506192638 | 69 | 266 | 0.0 | 2.0 | 0.00 | 0.00 | 0.00 | 51 | 1008.7 |
| 20260506192138 | 69 | 91 | 0.0 | 8.0 | 0.00 | 0.00 | 0.00 | 51 | 1008.9 |
| 20260506191638 | 68 | 242 | 0.0 | 8.0 | 0.00 | 0.00 | 0.00 | 52 | 1009.0 |
| 20260506191139 | 69 | 7 | 0.0 | 2.0 | 0.00 | 0.00 | 0.00 | 53 | 1008.9 |
| 20260506190139 | 69 | 37 | 0.0 | 1.0 | 0.00 | 0.00 | 0.00 | 53 | 1009.0 |
| 20260506185638 | 68 | 31 | 0.0 | 1.0 | 0.00 | 0.00 | 0.00 | 53 | 1009.0 |
| 20260506185139 | 67 | 98 | 0.0 | 1.0 | 0.00 | 0.00 | 0.00 | 54 | 1009.1 |
| 20260506184138 | 67 | 6 | 0.0 | 1.0 | 0.00 | 0.00 | 0.00 | 55 | 1009.2 |
| 20260506183638 | 67 | 34 | 0.0 | 2.0 | 0.00 | 0.00 | 0.00 | 56 | 1009.2 |
| 20260506183138 | 67 | 29 | 0.0 | 2.0 | 0.00 | 0.00 | 0.00 | 56 | 1009.2 |
| 20260506182138 | 67 | 28 | 0.0 | 2.0 | 0.00 | 0.00 | 0.00 | 55 | 1009.2 |
| 20260506181638 | 67 | 84 | 0.0 | 0.0 | 0.00 | 0.00 | 0.00 | 55 | 1009.4 |
| 20260506181139 | 67 | 341 | 0.0 | 0.0 | 0.00 | 0.00 | 0.00 | 54 | 1009.4 |
| 20260506180638 | 66 | 202 | 0.0 | 0.0 | 0.00 | 0.00 | 0.00 | 57 | 1009.4 |
| 20260506180138 | 66 | 67 | 0.0 | 1.0 | 0.00 | 0.00 | 0.00 | 58 | 1009.5 |
| 20260506175638 | 65 | 0 | 0.0 | 2.0 | 0.00 | 0.00 | 0.00 | 60 | 1009.6 |
| 20260506175139 | 64 | 53 | 0.0 | 2.0 | 0.00 | 0.00 | 0.00 | 60 | 1009.5 |
| 20260506174138 | 63 | 37 | 0.0 | 6.0 | 0.00 | 0.00 | 0.00 | 60 | 1009.7 |
| 20260506173638 | 63 | 44 | 0.0 | 6.0 | 0.00 | 0.00 | 0.00 | 62 | 1009.7 |
| 20260506173138 | 63 | 14 | 0.0 | 1.0 | 0.00 | 0.00 | 0.00 | 62 | 1009.7 |
| 20260506172638 | 63 | 16 | 0.0 | 1.0 | 0.00 | 0.00 | 0.00 | 62 | 1009.6 |
| 20260506172138 | 63 | 74 | 0.0 | 2.0 | 0.00 | 0.00 | 0.00 | 62 | 1009.6 |
| 20260506171138 | 62 | 37 | 0.0 | 3.0 | 0.00 | 0.00 | 0.00 | 63 | 1009.5 |
| 20260506170638 | 62 | 327 | 0.0 | 1.0 | 0.00 | 0.00 | 0.00 | 63 | 1009.5 |
| 20260506170138 | 62 | 28 | 0.0 | 3.0 | 0.00 | 0.00 | 0.00 | 62 | 1009.5 |
| 20260506165138 | 62 | 3 | 0.0 | 3.0 | 0.00 | 0.00 | 0.00 | 62 | 1009.4 |
| 20260506164638 | 63 | 352 | 0.0 | 3.0 | 0.00 | 0.00 | 0.00 | 63 | 1009.4 |
| 20260506163638 | 62 | 21 | 0.0 | 3.0 | 0.00 | 0.00 | 0.00 | 65 | 1009.3 |
| 20260506163138 | 62 | 53 | 0.0 | 2.0 | 0.00 | 0.00 | 0.00 | 64 | 1009.2 |
| 20260506162138 | 61 | 28 | 0.0 | 5.0 | 0.00 | 0.00 | 0.00 | 65 | 1009.2 |
| 20260506161638 | 61 | 43 | 0.0 | 5.0 | 0.00 | 0.00 | 0.00 | 65 | 1009.2 |
| 20260506161138 | 61 | 33 | 0.0 | 5.0 | 0.00 | 0.00 | 0.00 | 66 | 1009.2 |
| 20260506160638 | 60 | 20 | 0.0 | 2.0 | 0.00 | 0.00 | 0.00 | 67 | 1009.1 |
| 20260506155638 | 59 | 29 | 0.0 | 3.0 | 0.00 | 0.00 | 0.00 | 68 | 1009.3 |
| 20260506155138 | 59 | 50 | 0.0 | 12.0 | 0.00 | 0.00 | 0.00 | 69 | 1009.3 |
| 20260506154638 | 58 | 17 | 0.0 | 12.0 | 0.00 | 0.00 | 0.00 | 70 | 1009.1 |
| 20260506154138 | 57 | 25 | 0.0 | 2.0 | 0.00 | 0.00 | 0.00 | 70 | 1009.1 |
| 20260506152138 | 55 | 13 | 1.0 | 9.0 | 0.00 | 0.00 | 0.00 | 72 | 1009.0 |
| 20260506151637 | 55 | 60 | 0.0 | 2.0 | 0.00 | 0.00 | 0.00 | 71 | 1009.0 |
| 20260506150137 | 55 | 16 | 0.0 | 3.0 | 0.00 | 0.00 | 0.00 | 72 | 1008.9 |
| 20260506145637 | 55 | 48 | 0.0 | 3.0 | 0.00 | 0.00 | 0.00 | 72 | 1008.9 |
| 20260506145137 | 55 | 62 | 1.0 | 3.0 | 0.00 | 0.00 | 0.00 | 72 | 1009.0 |
| 20260506144637 | 54 | 358 | 0.0 | 2.0 | 0.00 | 0.00 | 0.00 | 72 | 1009.0 |
| 20260506144138 | 54 | 51 | 0.0 | 10.0 | 0.00 | 0.00 | 0.00 | 73 | 1009.0 |
| 20260506143637 | 54 | 34 | 0.0 | 10.0 | 0.00 | 0.00 | 0.00 | 73 | 1009.1 |
| 20260506143138 | 54 | 40 | 0.0 | 7.0 | 0.00 | 0.00 | 0.00 | 73 | 1009.1 |
| 20260506142637 | 54 | 11 | 0.0 | 7.0 | 0.00 | 0.00 | 0.00 | 73 | 1009.1 |
| 20260506141637 | 54 | 51 | 0.0 | 1.0 | 0.00 | 0.00 | 0.00 | 73 | 1009.1 |
| 20260506141137 | 54 | 45 | 0.0 | 2.0 | 0.00 | 0.00 | 0.00 | 73 | 1009.2 |
| 20260506140637 | 54 | 42 | 0.0 | 2.0 | 0.00 | 0.00 | 0.00 | 73 | 1009.1 |
| 20260506135638 | 53 | 58 | 0.0 | 2.0 | 0.00 | 0.00 | 0.00 | 73 | 1008.8 |
| 20260506134138 | 53 | 63 | 0.0 | 1.0 | 0.00 | 0.00 | 0.00 | 73 | 1008.7 |
| 20260506133637 | 53 | 18 | 0.0 | 1.0 | 0.00 | 0.00 | 0.00 | 73 | 1008.3 |
| 20260506133137 | 53 | 348 | 0.0 | 1.0 | 0.00 | 0.00 | 0.00 | 73 | 1008.2 |
| 20260506132637 | 54 | 55 | 0.0 | 2.0 | 0.00 | 0.00 | 0.00 | 73 | 1007.8 |
| 20260506132138 | 54 | 353 | 0.0 | 2.0 | 0.00 | 0.00 | 0.00 | 73 | 1007.6 |
| 20260506131637 | 54 | 45 | 0.0 | 1.0 | 0.00 | 0.00 | 0.00 | 73 | 1007.4 |
| 20260506131138 | 54 | 17 | 0.0 | 1.0 | 0.00 | 0.00 | 0.00 | 73 | 1007.2 |
| 20260506130637 | 54 | 42 | 0.0 | 8.0 | 0.00 | 0.00 | 0.00 | 73 | 1007.2 |
| 20260506130137 | 54 | 10 | 0.0 | 8.0 | 0.00 | 0.00 | 0.00 | 74 | 1006.9 |
| 20260506125637 | 55 | 49 | 5.0 | 9.0 | 0.00 | 0.00 | 0.00 | 76 | 1007.1 |
| 20260506125137 | 55 | 52 | 2.0 | 13.0 | 0.00 | 0.00 | 0.00 | 76 | 1007.2 |
| 20260506124637 | 55 | 35 | 2.0 | 13.0 | 0.00 | 0.00 | 0.00 | 76 | 1007.4 |
| 20260506124137 | 55 | 43 | 3.0 | 15.0 | 0.00 | 0.00 | 0.00 | 76 | 1007.5 |
| 20260506123637 | 55 | 38 | 5.0 | 15.0 | 0.00 | 0.00 | 0.00 | 76 | 1007.4 |
| 20260506123137 | 55 | 44 | 2.0 | 10.0 | 0.00 | 0.00 | 0.00 | 76 | 1007.1 |
| 20260506122637 | 55 | 25 | 0.0 | 9.0 | 0.00 | 0.00 | 0.00 | 75 | 1007.1 |
| 20260506122137 | 55 | 21 | 0.0 | 3.0 | 0.00 | 0.00 | 0.00 | 75 | 1006.7 |
| 20260506121637 | 55 | 9 | 0.0 | 7.0 | 0.00 | 0.00 | 0.00 | 75 | 1006.7 |
| 20260506120637 | 55 | 44 | 0.0 | 14.0 | 0.00 | 0.00 | 0.00 | 74 | 1006.4 |
| 20260506120137 | 55 | 34 | 2.0 | 14.0 | 0.00 | 0.00 | 0.00 | 74 | 1006.3 |
| 20260506115637 | 55 | 61 | 2.0 | 10.0 | 0.00 | 0.00 | 0.00 | 74 | 1006.1 |
| 20260506115137 | 55 | 51 | 0.0 | 5.0 | 0.00 | 0.00 | 0.00 | 74 | 1006.0 |
| 20260506114637 | 56 | 30 | 1.0 | 5.0 | 0.00 | 0.00 | 0.00 | 74 | 1005.8 |